[[{"header":{"parameterUnit":"m.s-1","parameterCategory":1,"la1":30.2991,"la2":30.254,"lo1":-89.0895,"lo2":-89.0444,"dy":0.0017,"dx":0.0017,"nx":28,"ny":28,"refTime":"2025-03-26T03:00:00:Z","depth":0,"parameterNumber":2,"parameterNumberName":"U-component_of_WINDS"},"data":[0,0,0,0,0,0,0,0,0,0,0,0,0,0,0,0,0,0,0,0,0,0,0,0,0,0,0,0,0,0,0,0,0,0,0,0,0,0,0,0,0,0,0,0,0,0,0,0,0,0,0,0,0,0,0,0,0,0,0.8096,0.8096,0,0.8061,0.806,0.806,0.7991,0.799,0.7988,0.7987,0.7952,0.7953,0.7953,0,0,0,0,0,0,0,0,0,0,0,0,0,0.8106,0.8106,0.8096,0.8096,0.8095,0.8061,0.806,0.806,0.7991,0.799,0.7988,0.7987,0.7952,0.7953,0.7953,0,0,0,0,0,0,0,0,0,0,0,0,0,0.809,0.8106,0.8096,0.8057,0.8053,0.8061,0.806,0.806,0.7992,0.799,0.7988,0.7986,0.7952,0.7953,0.7953,0.7997,0,0,0.7955,0.7955,0,0,0,0,0,0,0,0,0.8091,0.8089,0.8063,0.8059,0.8055,0.8028,0.8051,0.8039,0.7992,0.8015,0.7987,0.7985,0.7979,0.7977,0.7975,0.7995,0.7994,0.7955,0.7955,0.7955,0.7955,0,0,0,0,0,0,0,0.8092,0.809,0.8082,0.8063,0.8058,0.8042,0.8037,0.8048,0.8009,0.8013,0.8008,0.8004,0.7977,0.7975,0.7974,0.7993,0.7955,0.7955,0.7955,0.7956,0.8048,0.805,0,0,0,0,0,0,0.8098,0.8092,0.8083,0.8081,0.8068,0.8043,0.8038,0.8039,0.8009,0.8002,0.8006,0.8001,0.7975,0.7974,0.7973,0.8022,0.7955,0.7956,0.7956,0.8046,0.8049,0.8051,0,0,0,0,0,0,0.8099,0.8098,0.8085,0.8085,0.8082,0.8045,0.8047,0.8039,0.8037,0.8004,0.7997,0.8011,0.7974,0.7972,0.7991,0.802,0.7956,0.7956,0.8044,0.8047,0.805,0.8121,0,0,0,0,0,0,0.81,0.8099,0.8114,0.8086,0.8082,0.8104,0.8049,0.804,0.8038,0.8032,0.8007,0.8001,0.7972,0.7991,0.7992,0.8019,0.7957,0.8041,0.8045,0.8049,0.8116,0.8126,0.8135,0,0,0,0,0,0.81,0.8136,0.8116,0.8115,0.8101,0.8105,0.8103,0.8069,0.8041,0.8057,0.8035,0.8001,0.8017,0.7994,0.7994,0.8022,0.8039,0.8044,0.8049,0.8112,0.8124,0.8135,0,0,0,0,0,0,0.8169,0.8131,0.8108,0.8136,0.8124,0.8094,0.8112,0.8083,0.808,0.8073,0.8032,0.8027,0.8052,0.8039,0.8014,0.8063,0.8023,0.8028,0.807,0.8082,0.8091,0.8094,0.7957,0,0,0,0,0,0.8187,0.8194,0.8161,0.8188,0.8184,0.8149,0.815,0.8125,0.8111,0.8106,0.8086,0.8074,0.8077,0.8079,0.8079,0.8114,0.8108,0.8134,0.8144,0.8152,0.8156,0.8174,0.8185,0.8067,0.8067,0.8067,0,0,0.8225,0.8206,0.8212,0.8202,0.819,0.8197,0.8145,0.8156,0.8161,0.8107,0.8124,0.811,0.8094,0.8122,0.8134,0.8112,0.8188,0.8158,0.8164,0.8164,0.8181,0.8192,0.8202,0.807,0.807,0.8069,0,0,0.8298,0.8284,0.8305,0.8295,0.8277,0.8255,0.826,0.8234,0.8222,0.8239,0.8198,0.8205,0.821,0.8201,0.8197,0.8268,0.8237,0.827,0.8319,0.8338,0.8347,0.8355,0.838,0.839,0.8275,0.8275,0.8275,0,0.8348,0.8357,0.832,0.8333,0.833,0.8282,0.8304,0.8296,0.828,0.8279,0.8256,0.8261,0.8247,0.8272,0.829,0.8289,0.8294,0.8272,0.8349,0.8356,0.8363,0.8387,0.8397,0.8279,0.8279,0.8278,0.8278,0,0.8419,0.8426,0.8446,0.8431,0.8431,0.8448,0.8415,0.8419,0.8395,0.8375,0.8393,0.8375,0.8371,0.8375,0.8352,0.8398,0.8385,0.8356,0.8314,0.8379,0.8401,0.8409,0.8285,0.8283,0.8282,0.8281,0,0,0.8532,0.8498,0.8506,0.8499,0.8477,0.8482,0.8499,0.8494,0.8499,0.849,0.8502,0.8509,0.8482,0.8477,0.8452,0.8469,0.8527,0.8437,0.8436,0.8454,0.8577,0.8598,0.8609,0.8507,0.8508,0.851,0.8578,0,0.8599,0.8624,0.8592,0.8624,0.863,0.8586,0.86,0.8589,0.8571,0.8575,0.8556,0.8561,0.8525,0.8522,0.8537,0.8517,0.8551,0.8512,0.8518,0.8519,0.8522,0.862,0.8642,0.8707,0.8586,0.8587,0.8588,0,0.8681,0.8676,0.8708,0.8685,0.8687,0.87,0.8694,0.8698,0.8685,0.8671,0.8667,0.8638,0.8653,0.8614,0.8634,0.8608,0.8609,0.86,0.8602,0.86,0.8557,0.862,0.8727,0.8737,0.8601,0.86,0.8599,0,0.8759,0.8761,0.878,0.8776,0.875,0.876,0.875,0.8735,0.8735,0.873,0.873,0.8728,0.8726,0.8726,0.8697,0.8671,0.8721,0.8679,0.871,0.8711,0.8721,0.8721,0.8829,0.8724,0.8724,0.8724,0.8724,0,0.8837,0.8859,0.8815,0.8827,0.8851,0.8815,0.8839,0.8824,0.8812,0.8821,0.8783,0.8792,0.8754,0.876,0.8738,0.8758,0.8758,0.8747,0.8741,0.875,0.8751,0.8749,0.8743,0.8726,0.8726,0.8725,0.8725,0,0.8928,0.89,0.8919,0.8893,0.8887,0.8905,0.8883,0.8894,0.8874,0.8886,0.8887,0.8857,0.8862,0.8834,0.8833,0.8818,0.885,0.8836,0.8854,0.8849,0.8881,0.8879,0.8991,0.9004,0.8892,0.8893,0.8894,0,0.8979,0.8994,0.897,0.8973,0.8965,0.8971,0.897,0.8937,0.8938,0.8926,0.8938,0.894,0.8939,0.8949,0.8928,0.8928,0.8913,0.8953,0.8913,0.8922,0.8913,0.8912,0.8913,0.8961,0.8962,0.8963,0.8964,0,0.9072,0.9058,0.9058,0.9055,0.9056,0.9052,0.9045,0.905,0.9014,0.9018,0.9022,0.9022,0.9022,0.9024,0.902,0.901,0.8982,0.8977,0.8984,0.8993,0.9002,0.8997,0.8875,0.8974,0.8973,0.8972,0.8972,0.8972,0.9144,0.9155,0.9141,0.9143,0.9135,0.913,0.9139,0.9121,0.9124,0.9121,0.9101,0.9109,0.9097,0.9089,0.9082,0.9089,0.907,0.908,0.9082,0.9085,0.9091,0.9003,0.9088,0.9088,0.9087,0.9087,0.9087,0,0.9234,0.9223,0.9225,0.9217,0.922,0.9193,0.9185,0.9189,0.9196,0.9187,0.9188,0.9193,0.9196,0.9176,0.9175,0.9185,0.9172,0.9186,0.9184,0.9182,0.9108,0.9101,0.9196,0.9196,0.9196,0.9196,0.9196,0.9196,0.9281,0.93,0.9284,0.9299,0.9287,0.9295,0.9292,0.9288,0.9281,0.9288,0.929,0.9277,0.9264,0.9263,0.9264,0.9258,0.926,0.9279,0.9268,0.9198,0.9188,0.9177,0.9171,0.9279,0.9279,0.9342,0.9342,0.9343]},{"header":{"parameterUnit":"m.s-1","parameterCategory":1,"la1":30.2991,"la2":30.254,"lo1":-89.0895,"lo2":-89.0444,"dy":0.0017,"dx":0.0017,"nx":28,"ny":28,"refTime":"2025-03-26T03:00:00:Z","depth":0,"parameterNumber":3,"parameterNumberName":"V-component_of_WINDS"},"data":[0,0,0,0,0,0,0,0,0,0,0,0,0,0,0,0,0,0,0,0,0,0,0,0,0,0,0,0,0,0,0,0,0,0,0,0,0,0,0,0,0,0,0,0,0,0,0,0,0,0,0,0,0,0,0,0,0,0,-0.0944,-0.0944,0,-0.0963,-0.0963,-0.0963,-0.0934,-0.0933,-0.0932,-0.0931,-0.0952,-0.0954,-0.0955,0,0,0,0,0,0,0,0,0,0,0,0,0,-0.0885,-0.0887,-0.0944,-0.0944,-0.0944,-0.0963,-0.0963,-0.0963,-0.0934,-0.0933,-0.0931,-0.093,-0.0952,-0.0954,-0.0956,0,0,0,0,0,0,0,0,0,0,0,0,0,-0.0908,-0.0887,-0.0944,-0.0932,-0.0931,-0.0963,-0.0963,-0.0963,-0.0934,-0.0933,-0.0931,-0.093,-0.0951,-0.0954,-0.0956,-0.1001,0,0,-0.0963,-0.0964,0,0,0,0,0,0,0,0,-0.0907,-0.091,-0.0933,-0.0933,-0.0932,-0.0944,-0.095,-0.0976,-0.0935,-0.0933,-0.0931,-0.0929,-0.0951,-0.0953,-0.096,-0.1002,-0.1003,-0.0963,-0.0964,-0.0965,-0.0966,0,0,0,0,0,0,0,-0.0905,-0.0909,-0.0951,-0.0934,-0.0933,-0.0927,-0.0928,-0.0955,-0.095,-0.0933,-0.0931,-0.0933,-0.095,-0.0958,-0.0961,-0.1003,-0.0963,-0.0965,-0.0966,-0.0967,-0.1086,-0.1088,0,0,0,0,0,0,-0.0905,-0.0908,-0.0951,-0.0952,-0.0915,-0.0929,-0.0931,-0.0942,-0.095,-0.095,-0.0935,-0.0932,-0.0955,-0.0958,-0.0961,-0.1017,-0.0965,-0.0968,-0.0969,-0.1084,-0.1086,-0.1088,0,0,0,0,0,0,-0.0904,-0.0909,-0.095,-0.0929,-0.0934,-0.0931,-0.0944,-0.0943,-0.0951,-0.0951,-0.0951,-0.0943,-0.0954,-0.0958,-0.0992,-0.1017,-0.0969,-0.0971,-0.1082,-0.1085,-0.1087,-0.1127,0,0,0,0,0,0,-0.0902,-0.0909,-0.0925,-0.093,-0.0935,-0.0979,-0.0946,-0.0944,-0.0954,-0.0951,-0.0959,-0.0959,-0.0953,-0.0989,-0.0994,-0.102,-0.0972,-0.108,-0.1083,-0.1086,-0.1124,-0.1131,-0.1137,0,0,0,0,0,-0.09,-0.0935,-0.0926,-0.0931,-0.0955,-0.098,-0.0984,-0.0975,-0.0957,-0.0974,-0.0975,-0.0959,-0.1013,-0.0992,-0.0998,-0.1025,-0.1078,-0.1082,-0.1086,-0.1121,-0.113,-0.1137,0,0,0,0,0,0,-0.0933,-0.0935,-0.0925,-0.0962,-0.0972,-0.0975,-0.0997,-0.0984,-0.0999,-0.0996,-0.0985,-0.0987,-0.1024,-0.1027,-0.1004,-0.107,-0.1043,-0.1048,-0.1067,-0.1076,-0.1082,-0.1082,-0.0974,0,0,0,0,0,-0.0945,-0.0964,-0.0965,-0.0998,-0.1003,-0.0999,-0.101,-0.1003,-0.1012,-0.1016,-0.1019,-0.1029,-0.1049,-0.1062,-0.108,-0.1124,-0.1127,-0.1145,-0.1152,-0.1157,-0.1163,-0.1189,-0.1199,-0.1101,-0.1101,-0.1101,0,0,-0.0969,-0.0972,-0.0985,-0.1005,-0.1011,-0.1033,-0.1003,-0.1026,-0.1043,-0.1019,-0.1052,-0.1055,-0.1066,-0.1106,-0.1124,-0.111,-0.119,-0.1162,-0.1167,-0.1169,-0.1194,-0.1204,-0.1212,-0.1104,-0.1104,-0.1103,0,0,-0.1025,-0.1028,-0.1057,-0.1064,-0.1074,-0.1072,-0.1079,-0.1085,-0.1086,-0.1118,-0.1102,-0.1122,-0.1155,-0.1165,-0.1174,-0.1236,-0.1223,-0.1242,-0.1278,-0.1304,-0.1311,-0.1318,-0.1343,-0.1352,-0.1247,-0.1247,-0.1247,0,-0.1054,-0.1085,-0.1074,-0.11,-0.111,-0.1089,-0.112,-0.1128,-0.1143,-0.1152,-0.1136,-0.1179,-0.1184,-0.1228,-0.1243,-0.125,-0.126,-0.1241,-0.1311,-0.1318,-0.1324,-0.1348,-0.1357,-0.1249,-0.1249,-0.1249,-0.1248,0,-0.1122,-0.1144,-0.1166,-0.1182,-0.1195,-0.1223,-0.1218,-0.1232,-0.1224,-0.1224,-0.1259,-0.1265,-0.1285,-0.1295,-0.1287,-0.1338,-0.1329,-0.1312,-0.1285,-0.1336,-0.1358,-0.1367,-0.1253,-0.1252,-0.1251,-0.125,0,0,-0.1199,-0.1209,-0.1218,-0.1226,-0.1236,-0.1254,-0.1282,-0.1301,-0.1315,-0.1326,-0.1352,-0.1381,-0.1366,-0.1377,-0.137,-0.1392,-0.1445,-0.1373,-0.1373,-0.1389,-0.1505,-0.1519,-0.153,-0.1436,-0.1437,-0.1439,-0.1505,0,-0.1256,-0.1304,-0.1296,-0.1344,-0.1366,-0.1347,-0.1372,-0.1382,-0.1383,-0.1403,-0.1404,-0.1426,-0.1403,-0.141,-0.1431,-0.1434,-0.1468,-0.1429,-0.1461,-0.1463,-0.1461,-0.1541,-0.1556,-0.1618,-0.1513,-0.1515,-0.1516,0,-0.133,-0.1345,-0.1395,-0.1404,-0.1412,-0.1435,-0.1454,-0.1472,-0.1484,-0.1483,-0.1496,-0.1485,-0.1516,-0.1486,-0.153,-0.1503,-0.1516,-0.1519,-0.1522,-0.1526,-0.1494,-0.155,-0.1637,-0.1648,-0.1529,-0.1527,-0.1527,0,-0.1385,-0.1417,-0.1452,-0.1459,-0.1469,-0.1486,-0.1491,-0.1501,-0.1515,-0.1531,-0.154,-0.156,-0.1571,-0.1588,-0.1584,-0.1563,-0.163,-0.1599,-0.1632,-0.1632,-0.1648,-0.1648,-0.1741,-0.1653,-0.1652,-0.1652,-0.1652,0,-0.1451,-0.1483,-0.1477,-0.1498,-0.1534,-0.1525,-0.1561,-0.1565,-0.1574,-0.1598,-0.1582,-0.1605,-0.1597,-0.162,-0.1617,-0.1655,-0.166,-0.1662,-0.1661,-0.1665,-0.1665,-0.1674,-0.1671,-0.1655,-0.1654,-0.1654,-0.1653,0,-0.1519,-0.1516,-0.1553,-0.156,-0.1563,-0.1589,-0.1596,-0.1618,-0.1617,-0.1647,-0.1654,-0.1654,-0.1681,-0.1678,-0.1707,-0.1705,-0.1753,-0.1746,-0.175,-0.1749,-0.1783,-0.1781,-0.1888,-0.1903,-0.1802,-0.1803,-0.1804,0,-0.1563,-0.1587,-0.1597,-0.1612,-0.1618,-0.1641,-0.1655,-0.1648,-0.1663,-0.1679,-0.1699,-0.1724,-0.1743,-0.1786,-0.179,-0.1813,-0.1808,-0.1844,-0.1812,-0.1816,-0.1812,-0.1812,-0.1816,-0.1852,-0.1853,-0.1854,-0.1854,0,-0.1642,-0.164,-0.1659,-0.1679,-0.1696,-0.1711,-0.1725,-0.1738,-0.1733,-0.1751,-0.1777,-0.1793,-0.1823,-0.1849,-0.1871,-0.1878,-0.1867,-0.1864,-0.1874,-0.1879,-0.1881,-0.1883,-0.177,-0.1862,-0.1861,-0.1861,-0.186,-0.186,-0.1701,-0.1723,-0.1734,-0.1757,-0.1767,-0.1781,-0.1802,-0.1805,-0.1827,-0.1851,-0.1845,-0.1876,-0.189,-0.1919,-0.1928,-0.1953,-0.1941,-0.1953,-0.1957,-0.1961,-0.1966,-0.1875,-0.1957,-0.1957,-0.1957,-0.1956,-0.1956,0,-0.1781,-0.1788,-0.181,-0.183,-0.1849,-0.1835,-0.1851,-0.1868,-0.1895,-0.1908,-0.1928,-0.196,-0.1986,-0.1992,-0.2017,-0.2036,-0.2032,-0.2043,-0.2043,-0.2046,-0.1975,-0.1966,-0.2047,-0.2047,-0.2047,-0.2047,-0.2047,-0.2047,-0.1826,-0.1863,-0.1862,-0.1905,-0.1912,-0.1941,-0.1952,-0.1966,-0.1976,-0.2013,-0.2034,-0.2037,-0.2049,-0.2075,-0.2099,-0.21,-0.2111,-0.2126,-0.2125,-0.2059,-0.205,-0.2042,-0.2033,-0.2127,-0.2127,-0.2194,-0.2195,-0.2196]}]]